Ironwood, MI

8:40 AM CST on January 22, 2018 (GMT -0600)
Gogebic-Iron County

Weather History for KIWD - April, 2014

Change the Weather History Date:

Wednesday, April 9, 2014

  Actual Average Record
Temperature  
Mean Temperature 40 °F -  
Max Temperature 57 °F 44 °F 69 °F (2005)
Min Temperature 23 °F 27 °F -2 °F (2007)
Degree Days  
Heating Degree Days 25    
Moisture  
Dew Point 24 °F    
Average Humidity 50    
Maximum Humidity 80    
Minimum Humidity 31    
Precipitation  
Precipitation 0.00 in - - ()
Sea Level Pressure  
Sea Level Pressure 29.66 in    
Wind  
Wind Speed 7 mph (SSW)    
Max Wind Speed 24 mph    
Max Gust Speed 32 mph    
Visibility 10 miles    
Events Thunderstorm    
Averages and records for this station are not official NWS values.
T = Trace of Precipitation, MM = Missing Value Source: NWS Daily Summary

Daily Weather History Graph

Daily Weather History Graph

Search for Another Location

Airport or City:

Trip Planner

Search our weather history database for the weather conditions in past years. The results will help you decide how hot, cold, wet, or windy it might be!

Date:

Astronomy

Apr. 09, 2014 Rise Set
Actual Time 6:24 AM CDT 7:40 PM CDT
Civil Twilight 5:53 AM CDT 8:11 PM CDT
Nautical Twilight 5:16 AM CDT 8:49 PM CDT
Astronomical Twilight 4:36 AM CDT 9:29 PM CDT
Moon 2:11 PM CDT (4/9) 3:32 AM CDT (4/9)
Length of Visible Light 14h 17m
Length of Day
13h 15m
Waxing Gibbous, 72% of the Moon is Illuminated
Apr 9
Waxing Gibbous
Apr 15
Full
Apr 22
Last Quarter
Apr 29
New
May 6
First Quarter

Hourly Weather History & Observations

Time (CDT) Temp. Windchill Dew Point Humidity Pressure Visibility Wind Dir Wind Speed Gust Speed Precip Events Conditions
12:15 AM 30.2 °F 26.7 °F 19.4 °F 64% 29.88 in 10.0 mi SW 3.5 mph - N/A   Clear
12:35 AM 30.2 °F - 19.4 °F 64% 29.88 in 10.0 mi Calm Calm - N/A   Clear
12:55 AM 28.4 °F - 19.4 °F 69% 29.87 in 10.0 mi Calm Calm - N/A   Clear
1:15 AM 28.4 °F 24.6 °F 19.4 °F 69% 29.87 in 10.0 mi WSW 3.5 mph - N/A   Clear
1:35 AM 26.6 °F 21.2 °F 21.2 °F 80% 29.87 in 10.0 mi WSW 4.6 mph - N/A   Clear
1:55 AM 28.4 °F 24.6 °F 19.4 °F 69% 29.86 in 10.0 mi WSW 3.5 mph - N/A   Clear
2:15 AM 26.6 °F 21.2 °F 15.8 °F 64% 29.86 in 10.0 mi WSW 4.6 mph - N/A   Clear
2:35 AM 24.8 °F 20.5 °F 17.6 °F 74% 29.86 in 10.0 mi WSW 3.5 mph - N/A   Clear
2:55 AM 24.8 °F - 17.6 °F 74% 29.86 in 10.0 mi Calm Calm - N/A   Clear
3:15 AM 24.8 °F - 14.0 °F 64% 29.85 in 10.0 mi Calm Calm - N/A   Clear
3:35 AM 23.0 °F - 15.8 °F 74% 29.85 in 10.0 mi Calm Calm - N/A   Clear
3:55 AM 24.8 °F - 17.6 °F 74% 29.85 in 10.0 mi Calm Calm - N/A   Clear
4:15 AM 24.8 °F - 15.8 °F 69% 29.85 in 10.0 mi Calm Calm - N/A   Clear
4:35 AM 23.0 °F - 17.6 °F 80% 29.85 in 10.0 mi Calm Calm - N/A   Clear
4:55 AM 24.8 °F - 19.4 °F 80% 29.85 in 10.0 mi Calm Calm - N/A   Clear
5:15 AM 24.8 °F 20.5 °F 17.6 °F 74% 29.85 in 10.0 mi WSW 3.5 mph - N/A   Clear
5:35 AM 28.4 °F - 17.6 °F 64% 29.84 in 10.0 mi Calm Calm - N/A   Clear
5:55 AM 28.4 °F - 17.6 °F 64% 29.84 in 10.0 mi Calm Calm - N/A   Clear
6:15 AM 28.4 °F - 17.6 °F 64% 29.84 in 10.0 mi Calm Calm - N/A   Scattered Clouds
6:35 AM 28.4 °F 23.3 °F 17.6 °F 64% 29.83 in 10.0 mi South 4.6 mph - N/A   Mostly Cloudy
6:55 AM 28.4 °F - 17.6 °F 64% 29.83 in 10.0 mi Calm Calm - N/A   Overcast
7:15 AM 33.8 °F 28.6 °F 19.4 °F 56% 29.83 in 10.0 mi South 5.8 mph - N/A   Overcast
7:35 AM 32.0 °F - 17.6 °F 55% 29.83 in 10.0 mi Calm Calm - N/A   Overcast
7:55 AM 32.0 °F 25.6 °F 19.4 °F 60% 29.83 in 10.0 mi SW 6.9 mph - N/A   Overcast
8:15 AM 37.4 °F 32.8 °F 21.2 °F 52% 29.82 in 10.0 mi SW 5.8 mph - N/A   Mostly Cloudy
8:35 AM 37.4 °F 31.4 °F 19.4 °F 48% 29.82 in 10.0 mi SSW 8.1 mph - N/A   Overcast
8:55 AM 39.2 °F 31.6 °F 21.2 °F 49% 29.80 in 10.0 mi SSW 12.7 mph 20.7 mph N/A   Overcast
9:15 AM 41.0 °F 35.2 °F 21.2 °F 45% 29.79 in 10.0 mi SSW 9.2 mph 18.4 mph N/A   Mostly Cloudy
9:35 AM 42.8 °F 36.6 °F 21.2 °F 42% 29.78 in 10.0 mi SSW 11.5 mph 17.3 mph N/A   Overcast
9:55 AM 42.8 °F 36.2 °F 21.2 °F 42% 29.78 in 10.0 mi SSW 12.7 mph 18.4 mph N/A   Overcast
10:15 AM 44.6 °F 39.7 °F 21.2 °F 39% 29.77 in 10.0 mi SSW 9.2 mph - N/A   Overcast
10:35 AM 44.6 °F 38.4 °F 23.0 °F 43% 29.75 in 10.0 mi SSW 12.7 mph 20.7 mph N/A   Overcast
10:55 AM 44.6 °F 38.1 °F 23.0 °F 43% 29.73 in 10.0 mi South 13.8 mph 21.9 mph N/A   Overcast
11:15 AM 44.6 °F 37.8 °F 24.8 °F 46% 29.72 in 10.0 mi South 15.0 mph 24.2 mph N/A   Overcast
11:35 AM 44.6 °F 37.4 °F 23.0 °F 43% 29.70 in 10.0 mi SSW 16.1 mph 20.7 mph N/A   Mostly Cloudy
11:55 AM 46.4 °F 42.9 °F 23.0 °F 40% 29.70 in 10.0 mi South 6.9 mph 17.3 mph N/A   Mostly Cloudy
12:15 PM 46.4 °F 41.5 °F 24.8 °F 43% 29.69 in 10.0 mi South 10.4 mph 19.6 mph N/A   Overcast
12:35 PM 46.4 °F 41.1 °F 24.8 °F 43% 29.66 in 10.0 mi South 11.5 mph 23.0 mph N/A   Overcast
12:55 PM 48.2 °F - 24.8 °F 40% 29.64 in 10.0 mi South 12.7 mph 24.2 mph N/A   Mostly Cloudy
1:15 PM 50.0 °F - 24.8 °F 37% 29.62 in 10.0 mi South 13.8 mph 21.9 mph N/A   Clear
1:35 PM 51.8 °F - 26.6 °F 38% 29.61 in 10.0 mi South 11.5 mph 31.1 mph N/A   Clear
1:55 PM 53.6 °F - 24.8 °F 33% 29.59 in 10.0 mi SSW 12.7 mph 25.3 mph N/A   Partly Cloudy
2:15 PM 53.6 °F - 24.8 °F 33% 29.58 in 10.0 mi SSW 17.3 mph 23.0 mph N/A   Scattered Clouds
2:35 PM 55.4 °F - 24.8 °F 31% 29.56 in 10.0 mi SSW 18.4 mph 26.5 mph N/A   Scattered Clouds
2:55 PM 55.4 °F - 26.6 °F 33% 29.57 in 10.0 mi SSW 15.0 mph 26.5 mph N/A   Scattered Clouds
3:15 PM 55.4 °F - 26.6 °F 33% 29.56 in 10.0 mi SSW 16.1 mph 29.9 mph N/A   Mostly Cloudy
3:35 PM 55.4 °F - 26.6 °F 33% 29.54 in 10.0 mi SSW 19.6 mph 28.8 mph N/A   Mostly Cloudy
3:55 PM 55.4 °F - 26.6 °F 33% 29.53 in 10.0 mi SSW 24.2 mph 31.1 mph N/A   Partly Cloudy
4:15 PM 55.4 °F - 26.6 °F 33% 29.54 in 10.0 mi SSW 19.6 mph 29.9 mph N/A   Clear
4:35 PM 55.4 °F - 28.4 °F 36% 29.53 in 10.0 mi SSW 20.7 mph 27.6 mph N/A   Clear
4:55 PM 55.4 °F - 28.4 °F 36% 29.52 in 10.0 mi SSW 20.7 mph 27.6 mph N/A   Clear
5:15 PM 57.2 °F - 28.4 °F 33% 29.52 in 10.0 mi SSW 13.8 mph 23.0 mph N/A   Clear
5:35 PM 57.2 °F - 28.4 °F 33% 29.51 in 10.0 mi SSW 16.1 mph 23.0 mph N/A   Clear
5:55 PM 55.4 °F - 28.4 °F 36% 29.51 in 10.0 mi SSW 15.0 mph 25.3 mph N/A   Clear
6:15 PM 55.4 °F - 28.4 °F 36% 29.51 in 10.0 mi SSW 11.5 mph 20.7 mph N/A   Clear
6:35 PM 55.4 °F - 28.4 °F 36% 29.51 in 10.0 mi SSW 15.0 mph 24.2 mph N/A   Clear
6:55 PM 55.4 °F - 30.2 °F 38% 29.51 in 10.0 mi SSW 16.1 mph 23.0 mph N/A   Clear
7:15 PM 55.4 °F - 30.2 °F 38% 29.50 in 10.0 mi SSW 17.3 mph 21.9 mph N/A   Clear
7:35 PM 55.4 °F - 30.2 °F 38% 29.49 in 10.0 mi SSW 13.8 mph 21.9 mph N/A   Clear
7:55 PM 53.6 °F - 32.0 °F 44% 29.48 in 10.0 mi South 17.3 mph 23.0 mph N/A   Clear
8:15 PM 53.6 °F - 32.0 °F 44% 29.47 in 10.0 mi South 13.8 mph 24.2 mph N/A   Clear
8:35 PM 53.6 °F - 32.0 °F 44% 29.46 in 10.0 mi South 15.0 mph 24.2 mph N/A   Clear
8:55 PM 53.6 °F - 32.0 °F 44% 29.44 in 10.0 mi South 16.1 mph 21.9 mph N/A   Clear
9:15 PM 53.6 °F - 32.0 °F 44% 29.42 in 10.0 mi South 18.4 mph 28.8 mph N/A   Clear
9:35 PM 53.6 °F - 33.8 °F 47% 29.42 in 10.0 mi South 19.6 mph 28.8 mph N/A   Clear
9:55 PM 53.6 °F - 32.0 °F 44% 29.42 in 10.0 mi SSW 16.1 mph 25.3 mph N/A   Clear
10:15 PM 53.6 °F - 33.8 °F 47% 29.41 in 10.0 mi SSW 17.3 mph 28.8 mph N/A   Partly Cloudy
10:35 PM 53.6 °F - 33.8 °F 47% 29.39 in 10.0 mi SSW 19.6 mph 27.6 mph N/A   Clear
10:55 PM 53.6 °F - 33.8 °F 47% 29.38 in 10.0 mi SSW 19.6 mph 32.2 mph N/A   Clear
11:15 PM 53.6 °F - 33.8 °F 47% 29.36 in 10.0 mi SSW 19.6 mph 27.6 mph N/A   Clear
11:35 PM 55.4 °F - 33.8 °F 44% 29.36 in 10.0 mi SSW 16.1 mph 27.6 mph N/A   Scattered Clouds
11:55 PM 53.6 °F - 33.8 °F 47% 29.37 in 10.0 mi SW 10.4 mph 19.6 mph N/A Thunderstorm Overcast